When you browse on this site, cookies collect data to enhance your experience and personalize the content and advertising you see.
Visit our Privacy Policy to learn more. By continuing to use the site, you agree to this use of cookies and data.
EN

Hourly Weather Myhove

Today, 7 August, Friday

Time Temperature Precipitation Wind Pressure Humidity
00:00 +23°C° 0 mm 1 mps 723 mmHg 76%
01:00 +22°C° 0 mm 1 mps 723 mmHg 78%
02:00 +16°C° 0 mm 1 mps 723 mmHg 98%
03:00 +17°C° 0 mm 2 mps 723 mmHg 91%
04:00 +19°C° 0 mm 2 mps 723 mmHg 79%
05:00 +20°C° 0 mm 1 mps 723 mmHg 77%
06:00 +20°C° 0 mm 1 mps 723 mmHg 77%
07:00 +21°C° 0 mm 1 mps 723 mmHg 77%
08:00 +22°C° 0 mm 1 mps 724 mmHg 82%
09:00 +21°C° 0 mm 2 mps 724 mmHg 84%
10:00 +23°C° 0 mm 2 mps 724 mmHg 86%
11:00 +24°C° 0 mm 2 mps 724 mmHg 82%
12:00 +25°C° 0 mm 2 mps 724 mmHg 78%
13:00 +26°C° 0 mm 2 mps 724 mmHg 77%
14:00 +28°C° 0 mm 3 mps 725 mmHg 49%
15:00 +28°C° 0 mm 4 mps 724 mmHg 57%
16:00 +28°C° 0 mm 3 mps 724 mmHg 59%
17:00 +28°C° 0 mm 3 mps 724 mmHg 60%
18:00 +27°C° 0 mm 3 mps 723 mmHg 66%
19:00 +26°C° 0 mm 2 mps 723 mmHg 72%
20:00 +25°C° 0 mm 1 mps 723 mmHg 74%
21:00 +22°C° 0 mm 0 mps 723 mmHg 75%
22:00 +22°C° 0 mm 0 mps 723 mmHg 74%
23:00 +23°C° 0 mm 1 mps 723 mmHg 75%

Tomorrow, 8 August, Saturday

Time Temperature Precipitation Wind Pressure Humidity
00:00 +23°C° 0 mm 1 mps 723 mmHg 75%
01:00 +22°C° 0 mm 1 mps 723 mmHg 78%
02:00 +21°C° 0 mm 1 mps 723 mmHg 81%
03:00 +21°C° 0 mm 1 mps 723 mmHg 83%
04:00 +20°C° 0 mm 1 mps 723 mmHg 86%
05:00 +20°C° 0 mm 1 mps 723 mmHg 89%
06:00 +20°C° 0 mm 1 mps 722 mmHg 91%
07:00 +20°C° 0 mm 1 mps 723 mmHg 96%
08:00 +20°C° 0 mm 2 mps 723 mmHg 99%
09:00 +20°C° 0 mm 2 mps 723 mmHg 100%
10:00 +20°C° 0 mm 2 mps 723 mmHg 100%
11:00 +20°C° 0 mm 2 mps 723 mmHg 100%
12:00 +20°C° 0 mm 3 mps 723 mmHg 100%
13:00 +21°C° 0 mm 2 mps 723 mmHg 100%
14:00 +24°C° 0 mm 3 mps 722 mmHg 98%
15:00 +24°C° 0 mm 3 mps 722 mmHg 96%
16:00 +24°C° 0.5 mm 3 mps 722 mmHg 90%
17:00 +24°C° 0.7 mm 3 mps 722 mmHg 92%
18:00 +24°C° 0 mm 3 mps 722 mmHg 89%
19:00 +22°C° 0.2 mm 3 mps 721 mmHg 94%
20:00 +23°C° 0.4 mm 2 mps 721 mmHg 98%
21:00 +21°C° 0 mm 2 mps 721 mmHg 100%
22:00 +21°C° 0 mm 1 mps 722 mmHg 100%
23:00 +21°C° 0 mm 1 mps 722 mmHg 100%

Day after tomorrow, 9 August, Sunday

Time Temperature Precipitation Wind Pressure Humidity
00:00 +21°C° 0 mm 1 mps 722 mmHg 100%
01:00 +20°C° 0 mm 1 mps 721 mmHg 100%
02:00 +20°C° 0 mm 1 mps 721 mmHg 100%
03:00 +19°C° 0 mm 1 mps 721 mmHg 100%
04:00 +17°C° 0 mm 0 mps 721 mmHg 100%
05:00 +17°C° 0 mm 0 mps 721 mmHg 100%
06:00 +17°C° 0 mm 0 mps 720 mmHg 100%
07:00 +17°C° 0 mm 0 mps 721 mmHg 100%
08:00 +20°C° 0 mm 1 mps 721 mmHg 100%
09:00 +20°C° 0 mm 1 mps 721 mmHg 100%
10:00 +21°C° 0 mm 1 mps 722 mmHg 100%
11:00 +21°C° 0 mm 2 mps 722 mmHg 96%
12:00 +21°C° 0 mm 3 mps 722 mmHg 93%
13:00 +23°C° 0.1 mm 2 mps 721 mmHg 88%
14:00 +24°C° 0 mm 2 mps 721 mmHg 86%
15:00 +24°C° 0 mm 3 mps 720 mmHg 85%
16:00 +24°C° 0 mm 3 mps 720 mmHg 86%
17:00 +24°C° 0 mm 3 mps 720 mmHg 86%
18:00 +24°C° 0 mm 3 mps 720 mmHg 90%
19:00 +23°C° 0 mm 2 mps 720 mmHg 92%
20:00 +21°C° 1.3 mm 2 mps 720 mmHg 100%
21:00 +19°C° 0.3 mm 0 mps 720 mmHg 100%
22:00 +21°C° 0 mm 1 mps 720 mmHg 100%
23:00 +21°C° 0 mm 1 mps 720 mmHg 100%

10 August, Monday

Time Temperature Precipitation Wind Pressure Humidity
00:00 +20°C° 0 mm 1 mps 720 mmHg 100%
01:00 +20°C° 0 mm 1 mps 719 mmHg 100%
02:00 +20°C° 0 mm 1 mps 719 mmHg 100%
03:00 +18°C° 0 mm 0 mps 719 mmHg 100%
04:00 +19°C° 0 mm 1 mps 719 mmHg 100%
05:00 +19°C° 0 mm 1 mps 719 mmHg 100%
06:00 +19°C° 0 mm 1 mps 719 mmHg 100%
07:00 +19°C° 0 mm 1 mps 719 mmHg 100%
08:00 +19°C° 0 mm 2 mps 719 mmHg 100%
09:00 +19°C° 0 mm 2 mps 719 mmHg 100%
10:00 +20°C° 0 mm 2 mps 720 mmHg 99%
11:00 +21°C° 0 mm 2 mps 720 mmHg 96%
12:00 +21°C° 0 mm 3 mps 720 mmHg 92%
13:00 +22°C° 0 mm 3 mps 720 mmHg 93%
14:00 +22°C° 0 mm 3 mps 719 mmHg 92%
15:00 +24°C° 0 mm 3 mps 719 mmHg 91%
16:00 +24°C° 0 mm 3 mps 719 mmHg 89%
17:00 +22°C° 0 mm 3 mps 719 mmHg 92%
18:00 +22°C° 0 mm 3 mps 719 mmHg 94%
19:00 +21°C° 0 mm 2 mps 719 mmHg 95%
20:00 +22°C° 0 mm 1 mps 719 mmHg 98%
21:00 +21°C° 0 mm 1 mps 719 mmHg 98%
22:00 +20°C° 0 mm 1 mps 719 mmHg 100%
23:00 +18°C° 0 mm 0 mps 720 mmHg 100%

11 August, Tuesday

Time Temperature Precipitation Wind Pressure Humidity
00:00 +20°C° 0 mm 1 mps 720 mmHg 100%
01:00 +19°C° 0 mm 1 mps 719 mmHg 100%
02:00 +19°C° 0 mm 1 mps 719 mmHg 100%
03:00 +17°C° 0 mm 0 mps 719 mmHg 100%
04:00 +17°C° 0 mm 0 mps 719 mmHg 100%
05:00 +19°C° 0 mm 1 mps 719 mmHg 100%
06:00 +19°C° 0 mm 1 mps 719 mmHg 100%
07:00 +19°C° 0 mm 1 mps 720 mmHg 100%
08:00 +19°C° 0 mm 1 mps 720 mmHg 100%
09:00 +18°C° 0 mm 2 mps 720 mmHg 100%
10:00 +19°C° 0 mm 2 mps 720 mmHg 99%
11:00 +20°C° 0 mm 2 mps 720 mmHg 98%
12:00 +21°C° 0 mm 2 mps 721 mmHg 95%
13:00 +21°C° 0 mm 3 mps 720 mmHg 93%
14:00 +21°C° 0 mm 3 mps 720 mmHg 93%
15:00 +22°C° 0 mm 3 mps 720 mmHg 92%
16:00 +21°C° 0 mm 3 mps 720 mmHg 92%
17:00 +21°C° 0 mm 3 mps 720 mmHg 90%
18:00 +21°C° 0 mm 2 mps 720 mmHg 89%
19:00 +21°C° 0 mm 1 mps 720 mmHg 92%
20:00 +21°C° 0 mm 1 mps 720 mmHg 94%
21:00 +20°C° 0 mm 1 mps 720 mmHg 96%
22:00 +20°C° 0 mm 1 mps 720 mmHg 98%
23:00 +19°C° 0 mm 1 mps 720 mmHg 97%

12 August, Wednesday

Time Temperature Precipitation Wind Pressure Humidity
00:00 +18°C° 0 mm 2 mps 720 mmHg 97%
01:00 +18°C° 0 mm 2 mps 719 mmHg 98%
02:00 +17°C° 0 mm 2 mps 719 mmHg 100%
03:00 +17°C° 0 mm 2 mps 719 mmHg 100%
04:00 +18°C° 0 mm 1 mps 719 mmHg 100%
05:00 +18°C° 0 mm 1 mps 719 mmHg 100%
06:00 +18°C° 0 mm 1 mps 719 mmHg 100%
07:00 +17°C° 0 mm 2 mps 720 mmHg 100%
08:00 +17°C° 0 mm 2 mps 720 mmHg 100%
09:00 +18°C° 0 mm 2 mps 720 mmHg 100%
10:00 +18°C° 0 mm 3 mps 720 mmHg 100%
11:00 +18°C° 0 mm 4 mps 720 mmHg 99%
12:00 +19°C° 0 mm 4 mps 720 mmHg 98%
13:00 +19°C° 0 mm 4 mps 720 mmHg 96%
14:00 +19°C° 0 mm 3 mps 720 mmHg 94%
15:00 +20°C° 0 mm 3 mps 720 mmHg 90%
16:00 +20°C° 0 mm 3 mps 720 mmHg 90%
17:00 +19°C° 0 mm 4 mps 720 mmHg 95%
18:00 +19°C° 0 mm 3 mps 720 mmHg 95%
19:00 +18°C° 0 mm 2 mps 720 mmHg 95%
20:00 +18°C° 0 mm 1 mps 720 mmHg 98%
21:00 +18°C° 0 mm 1 mps 721 mmHg 100%
22:00 +16°C° 0 mm 1 mps 721 mmHg 100%
23:00 +16°C° 0 mm 2 mps 721 mmHg 100%
Show more